User: anonymous
Location: Mactaquac Provincial Park
(45.9573°N, 66.8897°W)
Time: 14:53:32
(UTC-03:00)
Language:

Cosmos 1867 - Orbit

View from above orbital plane
View from above orbital plane
View from above satellite
View from above satellite

Ground track
Ground track

The orbit data is extracted from the following two-line orbital elements,

1 18187U 87060A   14272.73313430 -.00000044  00000-0  21293-4 0  1774
2 18187 065.0098 123.3934 0014128 264.5033 095.4440 14.31025450422121
Epoch (UTC): 29 September 2014 17:35:42
Eccentricity: 0.0014128
inclination: 65.0098°
perigee height: 778 km
apogee height: 798 km
right ascension of ascending node: 123.3934°
argument of perigee: 264.5033°
revolutions per day: 14.31025450
mean anomaly at epoch: 95.4440°
orbit number at epoch: 42212

The dashed part of the orbit path shows where the satellite is in the earth's shadow,  

DLR